| time (UTC) | temp F | wind direction | speed MPH | gust MPH | rain 1hr in | rain 24hr in | rain mn in | humidity % | barometer mb |
| 20260507113005 | 68 | 136 | 0.0 | 6.0 | 0.00 | 0.08 | 0.00 | 56 | 954.8 |
| 20260507112504 | 68 | 15 | 2.0 | 6.0 | 0.00 | 0.08 | 0.00 | 56 | 954.8 |
| 20260507112004 | 68 | 5 | 2.0 | 6.0 | 0.00 | 0.08 | 0.00 | 57 | 954.8 |
| 20260507111506 | 69 | 105 | 2.0 | 5.0 | 0.00 | 0.08 | 0.00 | 57 | 954.8 |
| 20260507111005 | 69 | 50 | 2.0 | 5.0 | 0.00 | 0.08 | 0.00 | 57 | 954.8 |
| 20260507110504 | 68 | 339 | 0.0 | 5.0 | 0.00 | 0.08 | 0.00 | 58 | 954.8 |
| 20260507105504 | 69 | 131 | 1.0 | 5.0 | 0.00 | 0.08 | 0.00 | 56 | 954.8 |
| 20260507105004 | 68 | 53 | 1.0 | 5.0 | 0.00 | 0.08 | 0.00 | 58 | 954.8 |
| 20260507104504 | 68 | 62 | 1.0 | 5.0 | 0.00 | 0.08 | 0.00 | 59 | 954.9 |
| 20260507104004 | 67 | 67 | 2.0 | 5.0 | 0.00 | 0.08 | 0.00 | 60 | 955.0 |
| 20260507103504 | 67 | 97 | 3.0 | 4.0 | 0.00 | 0.08 | 0.00 | 62 | 955.0 |
| 20260507103004 | 67 | 92 | 1.0 | 4.0 | 0.00 | 0.08 | 0.00 | 62 | 955.0 |
| 20260507102504 | 67 | 277 | 0.0 | 4.0 | 0.00 | 0.08 | 0.00 | 62 | 955.0 |
| 20260507102006 | 66 | 339 | 1.0 | 5.0 | 0.00 | 0.08 | 0.00 | 64 | 955.1 |
| 20260507101504 | 66 | 313 | 2.0 | 5.0 | 0.00 | 0.08 | 0.00 | 61 | 955.1 |
| 20260507101004 | 66 | 280 | 0.0 | 5.0 | 0.00 | 0.08 | 0.00 | 63 | 955.3 |
| 20260507100504 | 65 | 43 | 3.0 | 6.0 | 0.00 | 0.08 | 0.00 | 65 | 955.3 |
| 20260507100004 | 65 | 75 | 1.0 | 6.0 | 0.00 | 0.08 | 0.00 | 65 | 955.4 |
| 20260507095504 | 65 | 81 | 1.0 | 5.0 | 0.00 | 0.08 | 0.00 | 66 | 955.2 |
| 20260507095004 | 65 | 29 | 1.0 | 5.0 | 0.00 | 0.08 | 0.00 | 65 | 955.2 |
| 20260507094504 | 65 | 315 | 0.0 | 3.0 | 0.00 | 0.08 | 0.00 | 64 | 955.2 |
| 20260507094004 | 65 | 349 | 1.0 | 6.0 | 0.00 | 0.08 | 0.00 | 64 | 955.2 |
| 20260507093504 | 64 | 21 | 2.0 | 6.0 | 0.00 | 0.08 | 0.00 | 67 | 955.2 |
| 20260507093004 | 64 | 94 | 2.0 | 6.0 | 0.00 | 0.08 | 0.00 | 69 | 955.2 |
| 20260507092504 | 63 | 359 | 0.0 | 5.0 | 0.00 | 0.08 | 0.00 | 68 | 955.2 |
| 20260507092004 | 63 | 91 | 2.0 | 6.0 | 0.00 | 0.08 | 0.00 | 69 | 955.2 |
| 20260507091504 | 64 | 101 | 2.0 | 6.0 | 0.00 | 0.08 | 0.00 | 68 | 955.3 |
| 20260507091004 | 64 | 343 | 1.0 | 5.0 | 0.00 | 0.08 | 0.00 | 68 | 955.3 |
| 20260507090504 | 64 | 78 | 1.0 | 5.0 | 0.00 | 0.08 | 0.00 | 68 | 955.4 |
| 20260507090005 | 64 | 53 | 0.0 | 5.0 | 0.00 | 0.08 | 0.00 | 65 | 955.4 |
| 20260507085504 | 63 | 21 | 2.0 | 4.0 | 0.00 | 0.08 | 0.00 | 67 | 955.5 |
| 20260507085004 | 63 | 32 | 0.0 | 3.0 | 0.00 | 0.08 | 0.00 | 67 | 955.5 |
| 20260507084504 | 64 | 39 | 0.0 | 2.0 | 0.00 | 0.08 | 0.00 | 68 | 955.5 |
| 20260507084004 | 62 | 271 | 0.0 | 3.0 | 0.00 | 0.08 | 0.00 | 69 | 955.4 |
| 20260507083504 | 62 | 0 | 0.0 | 3.0 | 0.00 | 0.08 | 0.00 | 72 | 955.4 |
| 20260507083004 | 62 | 104 | 0.0 | 3.0 | 0.00 | 0.08 | 0.00 | 72 | 955.5 |
| 20260507082504 | 61 | 104 | 0.0 | 3.0 | 0.00 | 0.08 | 0.00 | 75 | 955.6 |
| 20260507082004 | 60 | 63 | 1.0 | 4.0 | 0.00 | 0.08 | 0.00 | 75 | 955.6 |
| 20260507081504 | 60 | 125 | 2.0 | 4.0 | 0.00 | 0.08 | 0.00 | 76 | 955.7 |
| 20260507081004 | 59 | 116 | 0.0 | 4.0 | 0.00 | 0.08 | 0.00 | 79 | 955.6 |
| 20260507080504 | 58 | 118 | 1.0 | 4.0 | 0.00 | 0.08 | 0.00 | 78 | 955.6 |
| 20260507080004 | 58 | 182 | 2.0 | 3.0 | 0.00 | 0.08 | 0.00 | 78 | 955.6 |
| 20260507075503 | 58 | 105 | 1.0 | 4.0 | 0.00 | 0.20 | 0.00 | 80 | 955.7 |
| 20260507075004 | 58 | 92 | 2.0 | 4.0 | 0.00 | 0.20 | 0.00 | 80 | 955.7 |
| 20260507074005 | 57 | 88 | 0.0 | 4.0 | 0.00 | 0.20 | 0.00 | 80 | 955.6 |
| 20260507073503 | 57 | 76 | 2.0 | 4.0 | 0.00 | 0.20 | 0.00 | 80 | 955.6 |
| 20260507073004 | 57 | 46 | 0.0 | 2.0 | 0.00 | 0.20 | 0.00 | 82 | 955.5 |
| 20260507072503 | 58 | 289 | 1.0 | 5.0 | 0.00 | 0.20 | 0.00 | 79 | 955.3 |
| 20260507072004 | 58 | 304 | 0.0 | 5.0 | 0.00 | 0.20 | 0.00 | 81 | 955.4 |
| 20260507071504 | 57 | 331 | 0.0 | 2.0 | 0.00 | 0.20 | 0.00 | 84 | 955.4 |
| 20260507071003 | 55 | 342 | 0.0 | 3.0 | 0.00 | 0.20 | 0.00 | 86 | 955.3 |
| 20260507070504 | 55 | 300 | 0.0 | 3.0 | 0.00 | 0.20 | 0.00 | 86 | 955.4 |
| 20260507070009 | 55 | 100 | 0.0 | 3.0 | 0.00 | 0.20 | 0.00 | 88 | 955.4 |
| 20260507065503 | 55 | 66 | 0.0 | 3.0 | 0.00 | 0.28 | 0.00 | 87 | 955.4 |
| 20260507065004 | 55 | 316 | 0.0 | 1.0 | 0.00 | 0.28 | 0.00 | 89 | 955.4 |
| 20260507064504 | 55 | 0 | 0.0 | 1.0 | 0.00 | 0.28 | 0.00 | 90 | 955.5 |
| 20260507064003 | 54 | 0 | 0.0 | 3.0 | 0.00 | 0.28 | 0.00 | 90 | 955.5 |
| 20260507063503 | 54 | 324 | 1.0 | 3.0 | 0.00 | 0.28 | 0.00 | 88 | 955.4 |
| 20260507063003 | 54 | 0 | 0.0 | 1.0 | 0.00 | 0.28 | 0.00 | 92 | 955.3 |
| 20260507062503 | 53 | 0 | 0.0 | 1.0 | 0.00 | 0.28 | 0.00 | 94 | 955.4 |
| 20260507062003 | 53 | 0 | 0.0 | 1.0 | 0.00 | 0.28 | 0.00 | 93 | 955.4 |
| 20260507061503 | 53 | 0 | 0.0 | 0.0 | 0.00 | 0.28 | 0.00 | 94 | 955.5 |
| 20260507061003 | 53 | 0 | 0.0 | 0.0 | 0.00 | 0.28 | 0.00 | 94 | 955.4 |
| 20260507060503 | 52 | 0 | 0.0 | 0.0 | 0.00 | 0.28 | 0.00 | 94 | 955.5 |
| 20260507060003 | 52 | 0 | 0.0 | 0.0 | 0.00 | 0.28 | 0.00 | 95 | 955.5 |
| 20260507055503 | 52 | 0 | 0.0 | 1.0 | 0.00 | 0.31 | 0.00 | 95 | 955.4 |
| 20260507055003 | 52 | 0 | 0.0 | 1.0 | 0.00 | 0.31 | 0.00 | 95 | 955.4 |
| 20260507054503 | 52 | 0 | 0.0 | 0.0 | 0.00 | 0.31 | 0.00 | 95 | 955.4 |
| 20260507054003 | 52 | 0 | 0.0 | 0.0 | 0.00 | 0.31 | 0.00 | 95 | 955.4 |
| 20260507053004 | 51 | 0 | 0.0 | 1.0 | 0.00 | 0.31 | 0.00 | 95 | 955.2 |
| 20260507052503 | 51 | 222 | 0.0 | 2.0 | 0.00 | 0.31 | 0.00 | 95 | 955.1 |
| 20260507052003 | 51 | 0 | 0.0 | 2.0 | 0.00 | 0.31 | 0.00 | 95 | 955.0 |
| 20260507051503 | 51 | 196 | 0.0 | 1.0 | 0.00 | 0.31 | 0.00 | 96 | 955.1 |
| 20260507051003 | 51 | 0 | 0.0 | 1.0 | 0.00 | 0.31 | 0.00 | 96 | 955.2 |
| 20260507050503 | 51 | 126 | 1.0 | 1.0 | 0.00 | 0.31 | 0.00 | 96 | 955.2 |
| 20260507050003 | 50 | 85 | 0.0 | 1.0 | 0.00 | 0.31 | 0.00 | 96 | 955.2 |
| 20260507045503 | 50 | 334 | 0.0 | 1.0 | 0.00 | 0.31 | 0.00 | 96 | 955.1 |
| 20260507045003 | 50 | 0 | 0.0 | 0.0 | 0.00 | 0.31 | 0.00 | 96 | 955.1 |
| 20260507044503 | 50 | 0 | 0.0 | 0.0 | 0.00 | 0.31 | 0.00 | 96 | 955.0 |
| 20260507044003 | 50 | 0 | 0.0 | 1.0 | 0.00 | 0.31 | 0.00 | 96 | 955.0 |
| 20260507043503 | 50 | 0 | 0.0 | 1.0 | 0.00 | 0.31 | 0.00 | 96 | 955.0 |
| 20260507043003 | 50 | 101 | 0.0 | 1.0 | 0.00 | 0.31 | 0.00 | 96 | 954.8 |
| 20260507042503 | 50 | 0 | 0.0 | 0.0 | 0.00 | 0.31 | 0.00 | 96 | 954.8 |
| 20260507042003 | 50 | 0 | 0.0 | 0.0 | 0.00 | 0.31 | 0.00 | 96 | 954.8 |
| 20260507041503 | 50 | 0 | 0.0 | 0.0 | 0.00 | 0.31 | 0.00 | 96 | 954.8 |
| 20260507041003 | 50 | 0 | 0.0 | 3.0 | 0.00 | 0.31 | 0.00 | 96 | 954.9 |
| 20260507040503 | 50 | 0 | 0.0 | 3.0 | 0.00 | 0.31 | 0.00 | 96 | 954.8 |
| 20260507040003 | 50 | 96 | 1.0 | 3.0 | 0.00 | 0.31 | 0.00 | 96 | 954.7 |
| 20260507035503 | 50 | 0 | 0.0 | 2.0 | 0.00 | 0.39 | 0.00 | 96 | 954.8 |
| 20260507035003 | 50 | 82 | 0.0 | 2.0 | 0.04 | 0.39 | 0.00 | 96 | 954.8 |
| 20260507034503 | 50 | 115 | 0.0 | 2.0 | 0.04 | 0.39 | 0.00 | 96 | 954.7 |
| 20260507034003 | 50 | 340 | 0.0 | 1.0 | 0.04 | 0.39 | 0.00 | 95 | 954.7 |
| 20260507033503 | 50 | 46 | 0.0 | 1.0 | 0.04 | 0.39 | 0.00 | 95 | 954.7 |
| 20260507033003 | 50 | 0 | 0.0 | 1.0 | 0.04 | 0.39 | 0.00 | 95 | 954.7 |
| 20260507032503 | 50 | 79 | 0.0 | 1.0 | 0.08 | 0.39 | 0.00 | 95 | 954.6 |
| 20260507032003 | 50 | 0 | 0.0 | 0.0 | 0.08 | 0.39 | 0.00 | 95 | 954.7 |
| 20260507031503 | 50 | 0 | 0.0 | 0.0 | 0.08 | 0.39 | 0.00 | 95 | 954.7 |
| 20260507031003 | 50 | 0 | 0.0 | 0.0 | 0.08 | 0.39 | 0.00 | 94 | 954.7 |
| 20260507030503 | 50 | 0 | 0.0 | 0.0 | 0.08 | 0.39 | 0.00 | 94 | 954.6 |
| 20260507025503 | 51 | 0 | 0.0 | 2.0 | 0.08 | 0.55 | 0.00 | 94 | 954.6 |
| 20260507025003 | 51 | 92 | 0.0 | 2.0 | 0.04 | 0.51 | 0.00 | 93 | 954.6 |
| 20260507024503 | 51 | 97 | 0.0 | 1.0 | 0.04 | 0.51 | 0.00 | 93 | 954.6 |
| 20260507024003 | 51 | 67 | 0.0 | 1.0 | 0.04 | 0.51 | 0.00 | 92 | 954.6 |
| 20260507023503 | 51 | 95 | 0.0 | 1.0 | 0.04 | 0.51 | 0.00 | 92 | 954.7 |
| 20260507023003 | 52 | 97 | 0.0 | 2.0 | 0.04 | 0.51 | 0.00 | 91 | 954.6 |
| 20260507022503 | 52 | 137 | 0.0 | 4.0 | 0.00 | 0.47 | 0.00 | 91 | 954.7 |
| 20260507022003 | 52 | 135 | 2.0 | 4.0 | 0.00 | 0.47 | 0.00 | 90 | 954.7 |
| 20260507021503 | 52 | 143 | 0.0 | 1.0 | 0.00 | 0.47 | 0.00 | 89 | 954.7 |
| 20260507021003 | 52 | 0 | 0.0 | 4.0 | 0.00 | 0.47 | 0.00 | 90 | 954.8 |
| 20260507020503 | 52 | 111 | 0.0 | 4.0 | 0.00 | 0.47 | 0.00 | 89 | 954.7 |
| 20260507020003 | 52 | 113 | 0.0 | 3.0 | 0.00 | 0.47 | 0.00 | 89 | 954.6 |
| 20260507015502 | 52 | 124 | 0.0 | 3.0 | 0.00 | 0.47 | 0.00 | 89 | 954.6 |
| 20260507015003 | 52 | 126 | 0.0 | 5.0 | 0.00 | 0.47 | 0.00 | 89 | 954.6 |
| 20260507014502 | 52 | 158 | 2.0 | 5.0 | 0.00 | 0.47 | 0.00 | 88 | 954.4 |
| 20260507014003 | 52 | 155 | 1.0 | 3.0 | 0.00 | 0.47 | 0.00 | 88 | 954.4 |
| 20260507013502 | 52 | 88 | 0.0 | 1.0 | 0.00 | 0.47 | 0.00 | 88 | 954.4 |
| 20260507013003 | 52 | 65 | 0.0 | 1.0 | 0.00 | 0.47 | 0.00 | 88 | 954.5 |
| 20260507012503 | 52 | 0 | 0.0 | 2.0 | 0.00 | 0.47 | 0.00 | 87 | 954.5 |
| 20260507012002 | 52 | 129 | 0.0 | 2.0 | 0.00 | 0.47 | 0.00 | 87 | 954.4 |
| 20260507011502 | 52 | 154 | 1.0 | 2.0 | 0.00 | 0.47 | 0.00 | 87 | 954.4 |
| 20260507011002 | 52 | 161 | 0.0 | 2.0 | 0.00 | 0.47 | 0.00 | 88 | 954.4 |
| 20260507010502 | 52 | 175 | 1.0 | 3.0 | 0.00 | 0.47 | 0.00 | 88 | 954.4 |
| 20260507010002 | 52 | 186 | 2.0 | 3.0 | 0.00 | 0.47 | 0.00 | 88 | 954.6 |
| 20260507005502 | 52 | 94 | 0.0 | 1.0 | 0.00 | 0.47 | 0.00 | 88 | 954.7 |
| 20260507005002 | 52 | 147 | 0.0 | 2.0 | 0.00 | 0.47 | 0.00 | 88 | 954.7 |
| 20260507004502 | 52 | 127 | 0.0 | 3.0 | 0.00 | 0.47 | 0.00 | 87 | 954.7 |
| 20260507004002 | 52 | 191 | 1.0 | 3.0 | 0.00 | 0.47 | 0.00 | 88 | 954.6 |
| 20260507003502 | 52 | 0 | 0.0 | 1.0 | 0.00 | 0.47 | 0.00 | 88 | 954.5 |
| 20260507003002 | 52 | 0 | 0.0 | 3.0 | 0.00 | 0.47 | 0.00 | 88 | 954.4 |
| 20260507002502 | 52 | 236 | 0.0 | 3.0 | 0.00 | 0.47 | 0.00 | 87 | 954.4 |
| 20260507002002 | 53 | 248 | 1.0 | 3.0 | 0.00 | 0.47 | 0.00 | 87 | 954.4 |
| 20260507001502 | 53 | 190 | 0.0 | 3.0 | 0.00 | 0.47 | 0.00 | 87 | 954.4 |
| 20260507001002 | 53 | 207 | 0.0 | 2.0 | 0.00 | 0.47 | 0.00 | 86 | 954.6 |
| 20260507000502 | 53 | 211 | 1.0 | 2.0 | 0.00 | 0.47 | 0.00 | 87 | 954.7 |
| 20260507000003 | 53 | 187 | 0.0 | 3.0 | 0.00 | 0.47 | 0.00 | 88 | 954.8 |
| 20260506235502 | 52 | 180 | 0.0 | 3.0 | 0.00 | 0.47 | 0.00 | 87 | 954.8 |
| 20260506235002 | 53 | 88 | 1.0 | 3.0 | 0.00 | 0.47 | 0.00 | 88 | 954.9 |
| 20260506234502 | 52 | 166 | 1.0 | 3.0 | 0.00 | 0.47 | 0.00 | 87 | 954.9 |
| 20260506234002 | 52 | 149 | 2.0 | 3.0 | 0.00 | 0.47 | 0.00 | 88 | 954.9 |
| 20260506233502 | 52 | 157 | 2.0 | 3.0 | 0.00 | 0.47 | 0.00 | 89 | 954.9 |
| 20260506233002 | 52 | 0 | 0.0 | 1.0 | 0.00 | 0.47 | 0.00 | 89 | 955.0 |
| 20260506232502 | 52 | 0 | 0.0 | 1.0 | 0.00 | 0.47 | 0.00 | 88 | 954.9 |
| 20260506232002 | 53 | 0 | 0.0 | 2.0 | 0.00 | 0.47 | 0.00 | 88 | 954.9 |
| 20260506231502 | 53 | 126 | 0.0 | 2.0 | 0.00 | 0.47 | 0.00 | 88 | 954.9 |
| 20260506231002 | 53 | 270 | 0.0 | 1.0 | 0.00 | 0.47 | 0.00 | 87 | 955.0 |
| 20260506230502 | 53 | 0 | 0.0 | 1.0 | 0.00 | 0.47 | 0.00 | 87 | 955.0 |
| 20260506230004 | 53 | 270 | 0.0 | 1.0 | 0.00 | 0.47 | 0.00 | 86 | 954.9 |
| 20260506225502 | 53 | 0 | 0.0 | 1.0 | 0.00 | 0.47 | 0.00 | 84 | 954.9 |
| 20260506225002 | 54 | 0 | 0.0 | 1.0 | 0.00 | 0.47 | 0.00 | 84 | 955.0 |
| 20260506224502 | 54 | 0 | 0.0 | 1.0 | 0.00 | 0.47 | 0.00 | 83 | 955.0 |
| 20260506224002 | 54 | 0 | 0.0 | 0.0 | 0.00 | 0.47 | 0.00 | 83 | 955.1 |
| 20260506223502 | 54 | 0 | 0.0 | 1.0 | 0.00 | 0.47 | 0.00 | 84 | 955.1 |
| 20260506223002 | 54 | 0 | 0.0 | 1.0 | 0.00 | 0.47 | 0.00 | 82 | 955.1 |
| 20260506222502 | 54 | 0 | 0.0 | 0.0 | 0.00 | 0.47 | 0.00 | 82 | 955.2 |
| 20260506222002 | 54 | 0 | 0.0 | 3.0 | 0.00 | 0.47 | 0.00 | 81 | 955.2 |
| 20260506221502 | 54 | 0 | 0.0 | 5.0 | 0.00 | 0.47 | 0.00 | 82 | 955.1 |
| 20260506221002 | 54 | 0 | 0.0 | 5.0 | 0.00 | 0.47 | 0.00 | 81 | 955.2 |
| 20260506220502 | 54 | 206 | 3.0 | 5.0 | 0.00 | 0.47 | 0.00 | 83 | 955.2 |
| 20260506220002 | 54 | 243 | 3.0 | 5.0 | 0.00 | 0.47 | 0.00 | 84 | 955.2 |
| 20260506215502 | 54 | 174 | 2.0 | 4.0 | 0.00 | 0.47 | 0.00 | 84 | 955.3 |
| 20260506215002 | 54 | 194 | 3.0 | 4.0 | 0.00 | 0.47 | 0.00 | 84 | 955.3 |
| 20260506214502 | 55 | 204 | 2.0 | 4.0 | 0.00 | 0.47 | 0.00 | 81 | 955.3 |
| 20260506214002 | 55 | 218 | 0.0 | 3.0 | 0.00 | 0.47 | 0.00 | 80 | 955.3 |
| 20260506213502 | 55 | 290 | 0.0 | 3.0 | 0.00 | 0.47 | 0.00 | 79 | 955.4 |
| 20260506213002 | 55 | 352 | 0.0 | 5.0 | 0.00 | 0.47 | 0.00 | 78 | 955.4 |
| 20260506212502 | 55 | 244 | 0.0 | 8.0 | 0.00 | 0.47 | 0.00 | 78 | 955.3 |
| 20260506212002 | 54 | 31 | 2.0 | 8.0 | 0.00 | 0.47 | 0.00 | 79 | 955.4 |
| 20260506211502 | 54 | 64 | 1.0 | 4.0 | 0.00 | 0.47 | 0.00 | 85 | 955.4 |
| 20260506211002 | 54 | 0 | 0.0 | 2.0 | 0.00 | 0.47 | 0.00 | 86 | 955.4 |
| 20260506210502 | 54 | 281 | 0.0 | 2.0 | 0.00 | 0.47 | 0.00 | 85 | 955.4 |
| 20260506210002 | 55 | 0 | 0.0 | 2.0 | 0.00 | 0.47 | 0.00 | 84 | 955.4 |
| 20260506205502 | 55 | 0 | 0.0 | 3.0 | 0.00 | 0.47 | 0.00 | 84 | 955.4 |
| 20260506205002 | 55 | 202 | 2.0 | 3.0 | 0.00 | 0.47 | 0.00 | 84 | 955.4 |
| 20260506204502 | 55 | 285 | 0.0 | 1.0 | 0.00 | 0.47 | 0.00 | 82 | 955.3 |
| 20260506204002 | 55 | 0 | 0.0 | 2.0 | 0.00 | 0.47 | 0.00 | 81 | 955.4 |
| 20260506203502 | 56 | 287 | 0.0 | 2.0 | 0.00 | 0.47 | 0.00 | 80 | 955.5 |
| 20260506203002 | 56 | 0 | 0.0 | 1.0 | 0.00 | 0.47 | 0.00 | 80 | 955.4 |
| 20260506202502 | 56 | 0 | 0.0 | 4.0 | 0.00 | 0.47 | 0.00 | 79 | 955.5 |
| 20260506202002 | 56 | 62 | 1.0 | 4.0 | 0.00 | 0.47 | 0.00 | 78 | 955.5 |
| 20260506201502 | 56 | 0 | 0.0 | 3.0 | 0.00 | 0.47 | 0.00 | 78 | 955.5 |
| 20260506201002 | 56 | 271 | 0.0 | 3.0 | 0.00 | 0.47 | 0.00 | 78 | 955.5 |
| 20260506200502 | 56 | 0 | 0.0 | 2.0 | 0.00 | 0.47 | 0.00 | 81 | 955.4 |
| 20260506200002 | 56 | 0 | 0.0 | 2.0 | 0.00 | 0.47 | 0.00 | 82 | 955.4 |
| 20260506195502 | 56 | 264 | 0.0 | 1.0 | 0.00 | 0.47 | 0.00 | 82 | 955.4 |
| 20260506195002 | 56 | 0 | 0.0 | 3.0 | 0.00 | 0.47 | 0.00 | 82 | 955.4 |
| 20260506194502 | 56 | 264 | 0.0 | 3.0 | 0.00 | 0.47 | 0.00 | 80 | 955.3 |
| 20260506194002 | 56 | 251 | 2.0 | 4.0 | 0.00 | 0.47 | 0.00 | 81 | 955.4 |
| 20260506193502 | 56 | 185 | 2.0 | 4.0 | 0.00 | 0.47 | 0.00 | 81 | 955.3 |
| 20260506193002 | 56 | 185 | 3.0 | 4.0 | 0.00 | 0.47 | 0.00 | 80 | 955.2 |
| 20260506192502 | 56 | 226 | 0.0 | 2.0 | 0.00 | 0.47 | 0.00 | 78 | 955.2 |
| 20260506192002 | 56 | 308 | 0.0 | 1.0 | 0.00 | 0.47 | 0.00 | 78 | 955.2 |
| 20260506191502 | 56 | 357 | 0.0 | 1.0 | 0.00 | 0.47 | 0.00 | 78 | 955.1 |
| 20260506191002 | 56 | 358 | 0.0 | 4.0 | 0.00 | 0.47 | 0.00 | 79 | 955.2 |
| 20260506190502 | 56 | 310 | 0.0 | 4.0 | 0.00 | 0.47 | 0.00 | 78 | 955.1 |
| 20260506190002 | 57 | 0 | 0.0 | 1.0 | 0.00 | 0.47 | 0.00 | 79 | 955.0 |
| 20260506185502 | 57 | 319 | 0.0 | 1.0 | 0.00 | 0.47 | 0.00 | 79 | 954.9 |
| 20260506185002 | 57 | 0 | 0.0 | 2.0 | 0.00 | 0.47 | 0.00 | 79 | 954.8 |
| 20260506184502 | 57 | 0 | 0.0 | 2.0 | 0.00 | 0.47 | 0.00 | 78 | 954.7 |
| 20260506184002 | 57 | 306 | 0.0 | 2.0 | 0.00 | 0.47 | 0.00 | 78 | 954.6 |
| 20260506183502 | 58 | 0 | 0.0 | 4.0 | 0.00 | 0.47 | 0.00 | 77 | 954.6 |
| 20260506183002 | 58 | 359 | 0.0 | 4.0 | 0.00 | 0.47 | 0.00 | 77 | 954.7 |
| 20260506182502 | 58 | 332 | 1.0 | 3.0 | 0.00 | 0.47 | 0.00 | 76 | 954.7 |
| 20260506182002 | 58 | 360 | 2.0 | 4.0 | 0.00 | 0.47 | 0.00 | 77 | 954.7 |
| 20260506181502 | 58 | 324 | 0.0 | 4.0 | 0.00 | 0.47 | 0.00 | 76 | 954.7 |
| 20260506181002 | 58 | 11 | 0.0 | 2.0 | 0.00 | 0.47 | 0.00 | 77 | 954.7 |
| 20260506180502 | 59 | 17 | 1.0 | 3.0 | 0.00 | 0.47 | 0.00 | 76 | 954.6 |
| 20260506180002 | 59 | 357 | 1.0 | 3.0 | 0.00 | 0.47 | 0.00 | 75 | 954.6 |
| 20260506175502 | 59 | 109 | 0.0 | 3.0 | 0.00 | 0.47 | 0.00 | 74 | 954.5 |
| 20260506175002 | 59 | 75 | 0.0 | 4.0 | 0.00 | 0.47 | 0.00 | 74 | 954.5 |
| 20260506174502 | 59 | 61 | 1.0 | 4.0 | 0.00 | 0.47 | 0.00 | 74 | 954.5 |
| 20260506173502 | 60 | 347 | 0.0 | 1.0 | 0.00 | 0.47 | 0.00 | 74 | 954.4 |
| 20260506173002 | 60 | 102 | 0.0 | 1.0 | 0.00 | 0.47 | 0.00 | 73 | 954.4 |
| 20260506172502 | 60 | 0 | 0.0 | 0.0 | 0.00 | 0.47 | 0.00 | 73 | 954.3 |
| 20260506172002 | 60 | 0 | 0.0 | 0.0 | 0.00 | 0.47 | 0.00 | 73 | 954.2 |
| 20260506171502 | 60 | 0 | 0.0 | 0.0 | 0.00 | 0.47 | 0.00 | 74 | 954.2 |
| 20260506171002 | 60 | 0 | 0.0 | 0.0 | 0.00 | 0.47 | 0.00 | 72 | 954.3 |
| 20260506170502 | 61 | 0 | 0.0 | 0.0 | 0.00 | 0.47 | 0.00 | 72 | 954.3 |
| 20260506170002 | 61 | 0 | 0.0 | 0.0 | 0.00 | 0.47 | 0.00 | 72 | 954.3 |
| 20260506165501 | 60 | 0 | 0.0 | 1.0 | 0.00 | 0.47 | 0.00 | 72 | 954.2 |
| 20260506165002 | 60 | 0 | 0.0 | 1.0 | 0.00 | 0.47 | 0.00 | 71 | 954.2 |
| 20260506164502 | 60 | 0 | 0.0 | 3.0 | 0.00 | 0.47 | 0.00 | 71 | 954.2 |
| 20260506164001 | 61 | 337 | 1.0 | 3.0 | 0.00 | 0.47 | 0.00 | 71 | 954.3 |
| 20260506163501 | 61 | 0 | 0.0 | 4.0 | 0.00 | 0.47 | 0.00 | 72 | 954.3 |
| 20260506163002 | 61 | 60 | 1.0 | 4.0 | 0.00 | 0.47 | 0.00 | 71 | 954.3 |
| 20260506162501 | 61 | 55 | 0.0 | 2.0 | 0.00 | 0.47 | 0.00 | 72 | 954.3 |
| 20260506162001 | 61 | 118 | 0.0 | 5.0 | 0.00 | 0.47 | 0.00 | 72 | 954.3 |
| 20260506161501 | 61 | 62 | 2.0 | 5.0 | 0.00 | 0.47 | 0.00 | 71 | 954.3 |
| 20260506161001 | 62 | 74 | 0.0 | 3.0 | 0.00 | 0.47 | 0.00 | 72 | 954.3 |
| 20260506160501 | 62 | 58 | 1.0 | 4.0 | 0.00 | 0.47 | 0.00 | 71 | 954.4 |
| 20260506160001 | 62 | 78 | 3.0 | 4.0 | 0.00 | 0.47 | 0.00 | 71 | 954.5 |
| 20260506155501 | 62 | 63 | 1.0 | 3.0 | 0.00 | 0.47 | 0.00 | 72 | 954.5 |
| 20260506155001 | 62 | 109 | 0.0 | 4.0 | 0.00 | 0.47 | 0.00 | 72 | 954.5 |
| 20260506154501 | 62 | 85 | 1.0 | 6.0 | 0.00 | 0.47 | 0.00 | 71 | 954.5 |
| 20260506154001 | 62 | 90 | 2.0 | 6.0 | 0.00 | 0.47 | 0.00 | 70 | 954.5 |
| 20260506153501 | 62 | 77 | 1.0 | 6.0 | 0.00 | 0.47 | 0.00 | 72 | 954.5 |
| 20260506153001 | 62 | 91 | 1.0 | 8.0 | 0.00 | 0.47 | 0.00 | 71 | 954.6 |
| 20260506152501 | 62 | 84 | 5.0 | 8.0 | 0.00 | 0.47 | 0.00 | 69 | 954.6 |
| 20260506152001 | 62 | 85 | 4.0 | 5.0 | 0.00 | 0.47 | 0.00 | 69 | 954.5 |
| 20260506151501 | 62 | 94 | 2.0 | 6.0 | 0.00 | 0.47 | 0.00 | 68 | 954.4 |
| 20260506151001 | 62 | 93 | 3.0 | 8.0 | 0.00 | 0.47 | 0.00 | 69 | 954.4 |
| 20260506150501 | 63 | 87 | 3.0 | 9.0 | 0.00 | 0.47 | 0.00 | 69 | 954.5 |
| 20260506150002 | 63 | 99 | 3.0 | 9.0 | 0.00 | 0.47 | 0.00 | 69 | 954.5 |
| 20260506145501 | 63 | 87 | 3.0 | 7.0 | 0.00 | 0.47 | 0.00 | 69 | 954.4 |
| 20260506145001 | 63 | 96 | 3.0 | 8.0 | 0.00 | 0.47 | 0.00 | 69 | 954.4 |
| 20260506144501 | 63 | 98 | 2.0 | 8.0 | 0.00 | 0.47 | 0.00 | 69 | 954.4 |
| 20260506144001 | 63 | 94 | 5.0 | 10.0 | 0.00 | 0.47 | 0.00 | 68 | 954.5 |
| 20260506143501 | 64 | 96 | 4.0 | 11.0 | 0.00 | 0.47 | 0.00 | 68 | 954.5 |
| 20260506143001 | 64 | 87 | 4.0 | 11.0 | 0.00 | 0.47 | 0.00 | 68 | 954.4 |
| 20260506142501 | 64 | 101 | 4.0 | 9.0 | 0.00 | 0.47 | 0.00 | 67 | 954.4 |
| 20260506142001 | 64 | 106 | 2.0 | 8.0 | 0.00 | 0.47 | 0.00 | 68 | 954.3 |
| 20260506141501 | 64 | 95 | 3.0 | 8.0 | 0.00 | 0.47 | 0.00 | 68 | 954.4 |
| 20260506141001 | 64 | 89 | 4.0 | 9.0 | 0.00 | 0.47 | 0.00 | 69 | 954.3 |
| 20260506140501 | 64 | 94 | 3.0 | 12.0 | 0.00 | 0.47 | 0.00 | 70 | 954.4 |
| 20260506140002 | 64 | 87 | 4.0 | 12.0 | 0.00 | 0.47 | 0.00 | 70 | 954.3 |
| 20260506135502 | 64 | 95 | 4.0 | 7.0 | 0.00 | 0.47 | 0.00 | 71 | 954.4 |
| 20260506135002 | 64 | 96 | 3.0 | 8.0 | 0.00 | 0.47 | 0.00 | 71 | 954.4 |
| 20260506134502 | 64 | 113 | 2.0 | 8.0 | 0.00 | 0.47 | 0.00 | 70 | 954.3 |
| 20260506134002 | 64 | 89 | 1.0 | 6.0 | 0.00 | 0.47 | 0.00 | 70 | 954.4 |
| 20260506133502 | 64 | 115 | 4.0 | 6.0 | 0.00 | 0.47 | 0.00 | 68 | 954.4 |
| 20260506132502 | 65 | 104 | 2.0 | 6.0 | 0.00 | 0.47 | 0.00 | 69 | 954.5 |
| 20260506132002 | 65 | 92 | 4.0 | 6.0 | 0.00 | 0.47 | 0.00 | 68 | 954.5 |
| 20260506131502 | 65 | 81 | 2.0 | 6.0 | 0.00 | 0.47 | 0.00 | 68 | 954.7 |
| 20260506131002 | 65 | 81 | 1.0 | 5.0 | 0.00 | 0.47 | 0.00 | 67 | 954.6 |
| 20260506130502 | 65 | 82 | 2.0 | 5.0 | 0.00 | 0.47 | 0.00 | 68 | 954.6 |
| 20260506130002 | 65 | 100 | 2.0 | 4.0 | 0.00 | 0.47 | 0.00 | 70 | 954.7 |
| 20260506125502 | 64 | 113 | 1.0 | 5.0 | 0.00 | 0.47 | 0.00 | 67 | 954.7 |
| 20260506125002 | 65 | 113 | 0.0 | 5.0 | 0.00 | 0.47 | 0.00 | 66 | 954.8 |
| 20260506124502 | 66 | 46 | 3.0 | 5.0 | 0.00 | 0.47 | 0.00 | 66 | 954.8 |
| 20260506124002 | 65 | 358 | 0.0 | 4.0 | 0.00 | 0.47 | 0.00 | 66 | 954.8 |
| 20260506123502 | 66 | 91 | 1.0 | 4.0 | 0.00 | 0.47 | 0.00 | 67 | 954.8 |
| 20260506123002 | 65 | 0 | 0.0 | 3.0 | 0.00 | 0.47 | 0.00 | 70 | 954.8 |
| 20260506122502 | 65 | 95 | 0.0 | 3.0 | 0.00 | 0.47 | 0.00 | 68 | 954.9 |
| 20260506122002 | 64 | 240 | 0.0 | 4.0 | 0.00 | 0.47 | 0.00 | 68 | 954.8 |
| 20260506121502 | 65 | 155 | 1.0 | 4.0 | 0.00 | 0.47 | 0.00 | 67 | 954.9 |
| 20260506121002 | 64 | 314 | 1.0 | 4.0 | 0.00 | 0.47 | 0.00 | 68 | 954.9 |
| 20260506120502 | 65 | 285 | 2.0 | 4.0 | 0.00 | 0.47 | 0.00 | 68 | 954.9 |
| 20260506120002 | 65 | 112 | 0.0 | 3.0 | 0.00 | 0.47 | 0.00 | 68 | 954.9 |
| 20260506115502 | 64 | 257 | 2.0 | 3.0 | 0.00 | 0.47 | 0.00 | 69 | 954.9 |
| 20260506115002 | 65 | 225 | 1.0 | 5.0 | 0.00 | 0.47 | 0.00 | 66 | 954.9 |
| 20260506114502 | 65 | 331 | 0.0 | 6.0 | 0.00 | 0.47 | 0.00 | 71 | 955.0 |
| 20260506114002 | 64 | 57 | 3.0 | 6.0 | 0.00 | 0.47 | 0.00 | 72 | 955.0 |
| 20260506113502 | 64 | 108 | 2.0 | 6.0 | 0.00 | 0.47 | 0.00 | 72 | 955.0 |